ARIANE 1 DEB, 26535

Orbit data source: Space-Track

ARIANE 1 DEB, 26535 is space debris in HEO originally from a launch on Mon, 24 Dec 1979 UTC launched from the French Guiana (FRGUI). Debris objects in space refer to the collection of defunct objects orbiting the Earth. Examples of debris include non-operational satellites, rocket bodies, and fragments generated from explosions, collisions, or faulty payload assembly.

Loading next visibility...
Identifier
26535, 1979-104R
Orbit
HEO
Country
Flag of FRFR
Related business
Manufacturer
Unknown
Mission
Spacecraft
Bus & Motor
Unknown
Mass
Unknown
Launch date (UTC)
1979-12-24 (46 years ago)
Launch vehicle
Unknown
Launch site
French Guiana (FRGUI)
Object type
Payload
Rocket body
Debris
Shape & HBR
Unknown shape, 0.2 m
Radar Cross Section
Medium (>0.1 m² and <1 m²)

Expand to show TLE details & history
Last TLE update: 1 month ago

TLE from 1 month ago
0 ARIANE 1 DEB
1 26535U 79104R   26020.01928243  .00008863  00000-0  64818-2 0  9995
2 26535  19.7649 302.5813 5873784 209.2436  98.6241  4.14593032188423
Epoch: 2026-01-20T00:27Z
TLE epoch observation values (Epoch: 2026-01-20T00:27:46.001Z)
Latitude
0.00011°
Longitude
176.25864°
Altitude
15,633.717 km
Speed
3.445 km/s
True Right ascension
20h 10m 25s
True Declination
0° 00' 00"
Sunlit
Object was in daylight at epoch
Visualization orbit readout
Latitude
Unknown
Longitude
Unknown
Altitude
Unknown
Speed
Unknown
Apparent Right ascension
Unknown
Apparent Declination
Unknown
Sunlit
N/A
Visualization observer readout
Local Sidereal Time
19:06:40
Azimuth
Unknown
Elevation
Unknown
Doppler factor
Unknown
Orbital elements
Apogee altitude
19,610.26 km
Perigee altitude
377.262 km
Semi-major axis
16,371.898 km
Eccentricity
0.58738
Inclination
19.7649°
RAAN
302.5813°
Arg. of periapsis
209.2436°
True anomaly
150.80877°
Mean anomaly
98.6241°
Eccentric anomaly
125.8892°
Mean motion
1.03608 °/min
Orbital period
347.46 mins
BSTAR
0.0064818
Loading maneuver chart data...
Computing Atmospheric mass density...
Loading historical data...
Loading historical data...
Loading historical data...
Loading historical data...
Loading historical data...
Loading historical data...
Loading historical data...

Documentation

Showing up to 5 results
|